Terminal Aerodrome Forecast
Issued by NWS

Home | Current Version | Previous Version | Graphics & Text | Print | Product List | Glossary On
Versions: 1 2 3 4 5 6 7 8 9 10 11 12 13 14
861
FTUS43 KOAX 281723
TAFCDR
TAF
KCDR 281723Z 2818/2918 25005KT P6SM SCT100
     FM282200 36005KT P6SM VCTS BKN100CB
     FM290300 VRB03KT P6SM SCT100
     FM290900 13005KT 2SM BR BKN002
     FM291400 VRB04KT P6SM SCT004=

USA.gov is the U.S. government's official web portal to all federal, state and local government web resources and services.